Find Globalstar M002

NORAD ID: 25164 Int'l Des: 1998-008 Owner: GLOBT Country: US Constellation: globalstar operational
LEOCIRCULAR

Live Position

Loading 3D Globe...

About Globalstar M002

Description loading...

Upcoming Passes

Passes for default location (London). Set your location on the main map for personalized predictions.

Altitude History

Loading altitude history...

Two-Line Element Set

1 25164U 98008C 26109.52866828 -.00000045 00000-0 61976-3 0 9998
2 25164 52.0003 192.0989 0000843 350.5908 9.4896 11.61516022219668
Epoch: Apr 19, 2026 • Age: 9 hours

Current Status

Altitude 1864.2 km
Velocity 6.96 km/s
Sub-Earth Point 50.73°N, 128.25°E
Launch Date Feb 14, 1998
Age 28.1 years
Type communications

Technical Details

Classification Payload
Mass 450.00 kg
Dry Mass 380.00 kg
Total Mass 450.00 kg
Length 1.50 m
Diameter 0.60 m
Span 12.00 m
Shape Box + 2 Pan
Manufacturer LOR
Bus Type LS-400
Phase Status In Orbit
Owner/State GLOBT/US

Most Searched